Ana Sayfa
METAR-TAF:

METAR-TAF

Havaalanları :

Marfa, Teksas, Amerika Birleşik Devletleri

Enlem: 30-22N, Boylam: 104-01W, yükseklik: 1478 m

Güncel hava durumu gözlemi

Rapor saat 06:56 UTC de 28 dakika önce yapıldı.
Sakin rüzgar
Sıcaklık 3°C
Nem 81%
Basınç 1019 hPa
Görüş mesafesi: 16.1 km
Açık gökyüzü

METAR: KMRF 140656Z AUTO 00000KT 10SM CLR 03/00 A3009 RMK AO2 SLP162 T00280000 402000017

Saat: 01:24 (07:24 UTC)


TAF: eksik

4.000'den fazla havaalanı için hava durumu gözlemleri ve tahminleri (METAR ve TAF raporları).

Kullanılabilir istasyonlar harita üzerinde sarı ve kırmızı noktalarla gösterilir.

İstasyonun adını görmek için fareyi noktanın üzerinde gezdirin.

Sonrasında hava gözlem ve tahminlerini görmek için tıklayın.

Haritayı değiştirmek için: yaklaştırmak için siyah artı işaretli yeşil düğmeye ve uzaklaştırmak için de eksi işaretli düğmeye hızla tıklayın; bitişik haritalar için yeşil okları kullanın.


METAR-TAF: